Location: Girdwood
(60.9430°N, 149.1660°W)
Time: 11:58:35
(UTC-08:00)

Iridium 86 - Visible Passes

Search period start: 23 July 2014 00:00
Search period end: 02 August 2014 00:00
Orbit: 776 x 779 km, 86.4° (Epoch: 23 July)

Date Brightness Start Highest point End Pass type
(mag) Time Alt. Az. Time Alt. Az. Time Alt. Az.
23 Jul 8.1 00:23:54 10° NNW 00:26:53 16° WNW 00:29:52 10° WSW visible
26 Jul 8.4 00:24:40 10° NW 00:26:43 12° WNW 00:28:46 10° W visible
26 Jul 8.1 23:50:12 10° NNW 23:53:38 18° WNW 23:57:04 10° WSW visible
29 Jul 8.3 23:50:47 10° NW 23:53:29 14° WNW 23:56:11 10° W visible
01 Aug 8.6 23:51:43 10° NW 23:53:18 11° WNW 23:54:52 10° W visible
